TimeEST,TemperatureF,Dew PointF,Humidity,Sea Level PressureIn,VisibilityMPH,Wind Direction,Wind SpeedMPH,Gust SpeedMPH,PrecipitationIn,Events,Conditions,WindDirDegrees,DateUTC
12:15 AM,32.0,32.0,100,30.12,10.0,NNE,3.5,-,N/A,,Clear,30,2012-11-25 05:15:00
12:35 AM,33.8,32.0,93,30.12,10.0,NNE,4.6,-,N/A,,Clear,30,2012-11-25 05:35:00
12:55 AM,37.4,30.2,75,30.12,10.0,NNE,4.6,-,N/A,,Clear,30,2012-11-25 05:55:00
1:15 AM,37.4,30.2,75,30.11,10.0,NE,3.5,-,N/A,,Clear,40,2012-11-25 06:15:00
1:35 AM,37.4,28.4,70,30.11,10.0,NNE,4.6,-,N/A,,Clear,30,2012-11-25 06:35:00
1:55 AM,37.4,28.4,70,30.12,10.0,Calm,Calm,-,N/A,,Clear,0,2012-11-25 06:55:00
2:15 AM,35.6,28.4,75,30.13,10.0,Calm,Calm,-,N/A,,Clear,0,2012-11-25 07:15:00
2:35 AM,33.8,28.4,81,30.13,10.0,Calm,Calm,-,N/A,,Clear,0,2012-11-25 07:35:00
2:55 AM,33.8,28.4,81,30.14,10.0,Calm,Calm,-,N/A,,Clear,0,2012-11-25 07:55:00
3:15 AM,33.8,28.4,81,30.14,10.0,Calm,Calm,-,N/A,,Clear,0,2012-11-25 08:15:00
3:35 AM,32.0,28.4,87,30.15,10.0,Calm,Calm,-,N/A,,Clear,0,2012-11-25 08:35:00
3:55 AM,32.0,28.4,87,30.15,10.0,Calm,Calm,-,N/A,,Clear,0,2012-11-25 08:55:00
4:15 AM,32.0,28.4,87,30.15,10.0,Calm,Calm,-,N/A,,Clear,0,2012-11-25 09:15:00
4:35 AM,32.0,28.4,87,30.15,10.0,Calm,Calm,-,N/A,,Clear,0,2012-11-25 09:35:00
4:55 AM,32.0,28.4,87,30.15,10.0,Calm,Calm,-,N/A,,Clear,0,2012-11-25 09:55:00
5:15 AM,32.0,26.6,80,30.15,10.0,Calm,Calm,-,N/A,,Clear,0,2012-11-25 10:15:00
5:35 AM,32.0,28.4,87,30.16,10.0,Calm,Calm,-,N/A,,Clear,0,2012-11-25 10:35:00
5:55 AM,32.0,28.4,87,30.17,10.0,Calm,Calm,-,N/A,,Clear,0,2012-11-25 10:55:00
6:15 AM,32.0,26.6,80,30.17,10.0,Calm,Calm,-,N/A,,Clear,0,2012-11-25 11:15:00
6:35 AM,32.0,26.6,80,30.18,10.0,Calm,Calm,-,N/A,,Clear,0,2012-11-25 11:35:00
6:55 AM,30.2,26.6,86,30.18,10.0,Calm,Calm,-,N/A,,Clear,0,2012-11-25 11:55:00
7:15 AM,32.0,26.6,80,30.18,10.0,Calm,Calm,-,N/A,,Clear,0,2012-11-25 12:15:00
7:35 AM,30.2,28.4,93,30.19,10.0,Calm,Calm,-,N/A,,Clear,0,2012-11-25 12:35:00
7:55 AM,32.0,28.4,87,30.20,10.0,Calm,Calm,-,N/A,,Clear,0,2012-11-25 12:55:00
8:15 AM,32.0,28.4,87,30.20,10.0,Calm,Calm,-,N/A,,Clear,0,2012-11-25 13:15:00
8:35 AM,35.6,28.4,75,30.20,10.0,Calm,Calm,-,N/A,,Clear,0,2012-11-25 13:35:00
8:55 AM,37.4,26.6,65,30.21,10.0,Calm,Calm,-,N/A,,Clear,0,2012-11-25 13:55:00
9:15 AM,41.0,26.6,57,30.21,10.0,ENE,4.6,-,N/A,,Clear,70,2012-11-25 14:15:00
9:35 AM,42.8,26.6,53,30.22,10.0,Calm,Calm,-,N/A,,Clear,0,2012-11-25 14:35:00
10:15 AM,44.6,24.8,46,30.22,10.0,Calm,Calm,-,N/A,,Clear,0,2012-11-25 15:15:00
10:35 AM,46.4,24.8,43,30.21,10.0,North,4.6,-,N/A,,Clear,10,2012-11-25 15:35:00
11:15 AM,50.0,26.6,40,30.20,10.0,Calm,Calm,-,N/A,,Clear,0,2012-11-25 16:15:00
11:35 AM,50.0,26.6,40,30.19,10.0,Calm,Calm,-,N/A,,Clear,0,2012-11-25 16:35:00
11:55 AM,51.8,26.6,38,30.18,10.0,Calm,Calm,-,N/A,,Clear,0,2012-11-25 16:55:00
12:15 PM,51.8,24.8,35,30.17,10.0,WSW,3.5,-,N/A,,Clear,240,2012-11-25 17:15:00
12:35 PM,53.6,26.6,35,30.16,10.0,Calm,Calm,-,N/A,,Clear,0,2012-11-25 17:35:00
12:55 PM,53.6,26.6,35,30.15,10.0,Calm,Calm,-,N/A,,Clear,0,2012-11-25 17:55:00
1:15 PM,55.4,28.4,36,30.13,10.0,SSW,6.9,-,N/A,,Clear,210,2012-11-25 18:15:00
1:35 PM,55.4,28.4,36,30.13,10.0,SSW,5.8,-,N/A,,Clear,200,2012-11-25 18:35:00
1:55 PM,55.4,26.6,33,30.12,10.0,South,3.5,-,N/A,,Clear,180,2012-11-25 18:55:00
2:15 PM,55.4,28.4,36,30.11,10.0,SW,3.5,-,N/A,,Clear,220,2012-11-25 19:15:00
2:35 PM,57.2,30.2,36,30.11,10.0,WSW,4.6,-,N/A,,Clear,240,2012-11-25 19:35:00
2:55 PM,57.2,30.2,36,30.10,10.0,Calm,Calm,-,N/A,,Clear,0,2012-11-25 19:55:00
3:15 PM,59.0,30.2,34,30.10,10.0,WSW,4.6,-,N/A,,Clear,250,2012-11-25 20:15:00
3:55 PM,59.0,32.0,36,30.09,10.0,South,3.5,-,N/A,,Clear,180,2012-11-25 20:55:00
4:15 PM,59.0,30.2,34,30.09,10.0,Calm,Calm,-,N/A,,Clear,0,2012-11-25 21:15:00
4:35 PM,57.2,32.0,38,30.09,10.0,Calm,Calm,-,N/A,,Clear,0,2012-11-25 21:35:00
4:55 PM,55.4,35.6,47,30.09,10.0,Calm,Calm,-,N/A,,Clear,0,2012-11-25 21:55:00
5:15 PM,51.8,35.6,54,30.09,10.0,Calm,Calm,-,N/A,,Clear,0,2012-11-25 22:15:00
5:35 PM,48.2,35.6,62,30.10,10.0,Calm,Calm,-,N/A,,Clear,0,2012-11-25 22:35:00
5:55 PM,46.4,35.6,66,30.10,10.0,Calm,Calm,-,N/A,,Clear,0,2012-11-25 22:55:00
6:15 PM,44.6,35.6,71,30.11,10.0,Calm,Calm,-,N/A,,Clear,0,2012-11-25 23:15:00
6:35 PM,42.8,35.6,76,30.12,10.0,Calm,Calm,-,N/A,,Clear,0,2012-11-25 23:35:00
6:55 PM,41.0,35.6,81,30.12,10.0,Calm,Calm,-,N/A,,Clear,0,2012-11-25 23:55:00
7:15 PM,41.0,35.6,81,30.13,10.0,Calm,Calm,-,N/A,,Clear,0,2012-11-26 00:15:00
7:35 PM,39.2,33.8,81,30.13,10.0,Calm,Calm,-,N/A,,Clear,0,2012-11-26 00:35:00
7:55 PM,39.2,33.8,81,30.13,10.0,Calm,Calm,-,N/A,,Clear,0,2012-11-26 00:55:00
8:15 PM,37.4,33.8,87,30.13,10.0,Calm,Calm,-,N/A,,Clear,0,2012-11-26 01:15:00
8:35 PM,37.4,33.8,87,30.13,10.0,Calm,Calm,-,N/A,,Clear,0,2012-11-26 01:35:00
8:55 PM,37.4,35.6,93,30.13,10.0,Calm,Calm,-,N/A,,Clear,0,2012-11-26 01:55:00
9:15 PM,35.6,33.8,93,30.14,10.0,Calm,Calm,-,N/A,,Clear,0,2012-11-26 02:15:00
9:35 PM,35.6,33.8,93,30.14,10.0,Calm,Calm,-,N/A,,Clear,0,2012-11-26 02:35:00
9:55 PM,35.6,33.8,93,30.14,10.0,Calm,Calm,-,N/A,,Clear,0,2012-11-26 02:55:00
10:15 PM,35.6,33.8,93,30.14,10.0,Calm,Calm,-,N/A,,Clear,0,2012-11-26 03:15:00
10:35 PM,35.6,33.8,93,30.15,10.0,Calm,Calm,-,N/A,,Clear,0,2012-11-26 03:35:00
10:55 PM,35.6,33.8,93,30.15,10.0,Calm,Calm,-,N/A,,Clear,0,2012-11-26 03:55:00
11:15 PM,35.6,33.8,93,30.15,10.0,Calm,Calm,-,N/A,,Clear,0,2012-11-26 04:15:00
11:35 PM,33.8,33.8,100,30.15,10.0,Calm,Calm,-,N/A,,Clear,0,2012-11-26 04:35:00
11:55 PM,33.8,33.8,100,30.15,10.0,Calm,Calm,-,N/A,,Clear,0,2012-11-26 04:55:00